Tracking 23752 objects as of 23-Oct-2021
HD Live streaming from Space Station
objects crossing your sky now

FREGAT DEB

Track FREGAT DEB now!
10-day predictions


NORAD ID: 45999
Int'l Code: 2011-037HA
Perigee: 753.8 km
Apogee: 4,644.6 km
Inclination: 51.5 °
Period: 143.3 minutes
Semi major axis: 9070 km
RCS: Unknown
Launch date: July 18, 2011
Source: Commonwealth of Independent States (former USSR) (CIS)
Launch site: TYURATAM MISSILE AND SPACE COMPLEX (TTMTR)

Note: This is SATELLITE DEBRIS
aabbcc
Your satellite tracking list
Your tracking list is empty




NASA's NSSDC Master Catalog

Two Line Element Set (TLE):
1 45999U 11037HA  21295.66565257 -.00000225  00000-0 -41725-3 0  9992
2 45999  51.4552 115.2096 2144840  48.9871 327.7526 10.05033399 45288
Source of the keplerian elements: AFSPC